Year,Month,Day,Hour,Minute,Value (Times are PST for temperature in C)
2009,07,29,00,00,15.80
2009,07,29,00,01,15.80
2009,07,29,00,02,15.80
2009,07,29,00,03,15.80
2009,07,29,00,04,15.80
2009,07,29,00,05,15.80
2009,07,29,00,06,15.80
2009,07,29,00,07,15.80
2009,07,29,00,08,15.80
2009,07,29,00,09,15.80
2009,07,29,00,10,15.80
2009,07,29,00,11,15.80
2009,07,29,00,12,15.80
2009,07,29,00,13,15.80
2009,07,29,00,14,15.90
2009,07,29,00,15,15.90
2009,07,29,00,16,15.90
2009,07,29,00,17,15.90
2009,07,29,00,18,15.90
2009,07,29,00,19,15.90
2009,07,29,00,20,16.00
2009,07,29,00,21,16.10
2009,07,29,00,22,16.10
2009,07,29,00,23,16.10
2009,07,29,00,24,16.10
2009,07,29,00,25,16.10
2009,07,29,00,26,16.10
2009,07,29,00,27,16.10
2009,07,29,00,28,16.20
2009,07,29,00,29,16.20
2009,07,29,00,30,16.20
2009,07,29,00,31,16.20
2009,07,29,00,32,16.30
2009,07,29,00,33,16.30
2009,07,29,00,34,16.30
2009,07,29,00,35,16.30
2009,07,29,00,36,16.40
2009,07,29,00,37,16.40
2009,07,29,00,38,16.40
2009,07,29,00,39,16.40
2009,07,29,00,40,16.40
2009,07,29,00,41,16.50
2009,07,29,00,42,16.60
2009,07,29,00,43,16.60
2009,07,29,00,44,16.60
2009,07,29,00,45,16.60
2009,07,29,00,46,16.70
2009,07,29,00,47,16.70
2009,07,29,00,48,16.70
2009,07,29,00,49,16.80
2009,07,29,00,50,16.80
2009,07,29,00,51,16.90
2009,07,29,00,52,16.90
2009,07,29,00,53,17.00
2009,07,29,00,54,17.00
2009,07,29,00,55,17.00
2009,07,29,00,56,17.00
2009,07,29,00,57,17.10
2009,07,29,00,58,17.10
2009,07,29,00,59,17.10
2009,07,29,01,00,17.10
2009,07,29,01,01,17.10
2009,07,29,01,02,17.00
2009,07,29,01,03,17.00
2009,07,29,01,04,17.00
2009,07,29,01,05,17.00
2009,07,29,01,06,17.00
2009,07,29,01,07,17.00
2009,07,29,01,08,17.00
2009,07,29,01,09,17.00
2009,07,29,01,10,17.00
2009,07,29,01,11,17.00
2009,07,29,01,12,17.10
2009,07,29,01,13,17.10
2009,07,29,01,14,17.10
2009,07,29,01,15,17.20
2009,07,29,01,16,17.20
2009,07,29,01,17,17.20
2009,07,29,01,18,17.20
2009,07,29,01,19,17.20
2009,07,29,01,20,17.20
2009,07,29,01,21,17.30
2009,07,29,01,22,17.30
2009,07,29,01,23,17.30
2009,07,29,01,24,17.30
2009,07,29,01,25,17.30
2009,07,29,01,26,17.30
2009,07,29,01,27,17.30
2009,07,29,01,28,17.30
2009,07,29,01,29,17.30
2009,07,29,01,30,17.30
2009,07,29,01,31,17.30
2009,07,29,01,32,17.30
2009,07,29,01,33,17.30
2009,07,29,01,34,17.30
2009,07,29,01,35,17.30
2009,07,29,01,36,17.20
2009,07,29,01,37,17.20
2009,07,29,01,38,17.20
2009,07,29,01,39,17.20
2009,07,29,01,40,17.20
2009,07,29,01,41,17.10
2009,07,29,01,42,17.10
2009,07,29,01,43,17.10
2009,07,29,01,44,17.10
2009,07,29,01,45,17.10
2009,07,29,01,46,17.10
2009,07,29,01,47,17.10
2009,07,29,01,48,17.20
2009,07,29,01,49,17.20
2009,07,29,01,50,17.20
2009,07,29,01,51,17.20
2009,07,29,01,52,17.20
2009,07,29,01,53,17.20
2009,07,29,01,54,17.20
2009,07,29,01,55,17.10
2009,07,29,01,56,17.10
2009,07,29,01,57,17.10
2009,07,29,01,58,17.10
2009,07,29,01,59,17.10
2009,07,29,02,00,17.10
2009,07,29,02,01,17.10
2009,07,29,02,02,17.20
2009,07,29,02,03,17.20
2009,07,29,02,04,17.30
2009,07,29,02,05,17.30
2009,07,29,02,06,17.30
2009,07,29,02,07,17.30
2009,07,29,02,08,17.30
2009,07,29,02,09,17.30
2009,07,29,02,10,17.30
2009,07,29,02,11,17.30
2009,07,29,02,12,17.30
2009,07,29,02,13,17.30
2009,07,29,02,14,17.30
2009,07,29,02,15,17.30
2009,07,29,02,16,17.30
2009,07,29,02,17,17.30
2009,07,29,02,18,17.30
2009,07,29,02,19,17.30
2009,07,29,02,20,17.30
2009,07,29,02,21,17.30
2009,07,29,02,22,17.30
2009,07,29,02,23,17.30
2009,07,29,02,24,17.40
2009,07,29,02,25,17.40
2009,07,29,02,26,17.40
2009,07,29,02,27,17.40
2009,07,29,02,28,17.40
2009,07,29,02,29,17.40
2009,07,29,02,30,17.40
2009,07,29,02,31,17.40
2009,07,29,02,32,17.40
2009,07,29,02,33,17.40
2009,07,29,02,34,17.40
2009,07,29,02,35,17.40
2009,07,29,02,36,17.40
2009,07,29,02,37,17.40
2009,07,29,02,38,17.40
2009,07,29,02,39,17.40
2009,07,29,02,40,17.40
2009,07,29,02,41,17.40
2009,07,29,02,42,17.40
2009,07,29,02,43,17.40
2009,07,29,02,44,17.30
2009,07,29,02,45,17.30
2009,07,29,02,46,17.30
2009,07,29,02,47,17.30
2009,07,29,02,48,17.30
2009,07,29,02,49,17.30
2009,07,29,02,50,17.30
2009,07,29,02,51,17.30
2009,07,29,02,52,17.30
2009,07,29,02,53,17.30
2009,07,29,02,54,17.30
2009,07,29,02,55,17.30
2009,07,29,02,56,17.30
2009,07,29,02,57,17.30
2009,07,29,02,58,17.30
2009,07,29,02,59,17.30
2009,07,29,03,00,17.30
2009,07,29,03,01,17.30
2009,07,29,03,02,17.30
2009,07,29,03,03,17.30
2009,07,29,03,04,17.30
2009,07,29,03,05,17.30
2009,07,29,03,06,17.30
2009,07,29,03,07,17.30
2009,07,29,03,08,17.30
2009,07,29,03,09,17.30
2009,07,29,03,10,17.30
2009,07,29,03,11,17.30
2009,07,29,03,12,17.30
2009,07,29,03,13,17.30
2009,07,29,03,14,17.30
2009,07,29,03,15,17.30
2009,07,29,03,16,17.30
2009,07,29,03,17,17.30
2009,07,29,03,18,17.30
2009,07,29,03,19,17.30
2009,07,29,03,20,17.30
2009,07,29,03,21,17.30
2009,07,29,03,22,17.30
2009,07,29,03,23,17.30
2009,07,29,03,24,17.30
2009,07,29,03,25,17.30
2009,07,29,03,26,17.30
2009,07,29,03,27,17.30
2009,07,29,03,28,17.30
2009,07,29,03,29,17.30
2009,07,29,03,30,17.30
2009,07,29,03,31,17.30
2009,07,29,03,32,17.30
2009,07,29,03,33,17.30
2009,07,29,03,34,17.30
2009,07,29,03,35,17.30
2009,07,29,03,36,17.30
2009,07,29,03,37,17.30
2009,07,29,03,38,17.30
2009,07,29,03,39,17.30
2009,07,29,03,40,17.30
2009,07,29,03,41,17.30
2009,07,29,03,42,17.30
2009,07,29,03,43,17.30
2009,07,29,03,44,17.30
2009,07,29,03,45,17.30
2009,07,29,03,46,17.30
2009,07,29,03,47,17.40
2009,07,29,03,48,17.40
2009,07,29,03,49,17.40
2009,07,29,03,50,17.50
2009,07,29,03,51,17.50
2009,07,29,03,52,17.50
2009,07,29,03,53,17.60
2009,07,29,03,54,17.60
2009,07,29,03,55,17.60
2009,07,29,03,56,17.60
2009,07,29,03,57,17.60
2009,07,29,03,58,17.60
2009,07,29,03,59,17.60
2009,07,29,04,00,17.60
2009,07,29,04,01,17.60
2009,07,29,04,02,17.50
2009,07,29,04,03,17.50
2009,07,29,04,04,17.50
2009,07,29,04,05,17.50
2009,07,29,04,06,17.50
2009,07,29,04,07,17.40
2009,07,29,04,08,17.40
2009,07,29,04,09,17.40
2009,07,29,04,10,17.40
2009,07,29,04,11,17.40
2009,07,29,04,12,17.30
2009,07,29,04,13,17.30
2009,07,29,04,14,17.30
2009,07,29,04,15,17.30
2009,07,29,04,16,17.30
2009,07,29,04,17,17.30
2009,07,29,04,18,17.40
2009,07,29,04,19,17.40
2009,07,29,04,20,17.50
2009,07,29,04,21,17.60
2009,07,29,04,22,17.60
2009,07,29,04,23,17.70
2009,07,29,04,24,17.70
2009,07,29,04,25,17.70
2009,07,29,04,26,17.70
2009,07,29,04,27,17.60
2009,07,29,04,28,17.60
2009,07,29,04,29,17.60
2009,07,29,04,30,17.60
2009,07,29,04,31,17.60
2009,07,29,04,32,17.60
2009,07,29,04,33,17.60
2009,07,29,04,34,17.60
2009,07,29,04,35,17.60
2009,07,29,04,36,17.60
2009,07,29,04,37,17.60
2009,07,29,04,38,17.60
2009,07,29,04,39,17.60
2009,07,29,04,40,17.60
2009,07,29,04,41,17.70
2009,07,29,04,42,17.70
2009,07,29,04,43,17.70
2009,07,29,04,44,17.70
2009,07,29,04,45,17.80
2009,07,29,04,46,17.90
2009,07,29,04,47,17.90
2009,07,29,04,48,17.90
2009,07,29,04,49,17.90
2009,07,29,04,50,17.90
2009,07,29,04,51,17.90
2009,07,29,04,52,17.90
2009,07,29,04,53,17.90
2009,07,29,04,54,17.90
2009,07,29,04,55,17.90
2009,07,29,04,56,17.90
2009,07,29,04,57,17.90
2009,07,29,04,58,17.90
2009,07,29,04,59,17.90
2009,07,29,05,00,17.90
2009,07,29,05,01,17.90
2009,07,29,05,02,17.90
2009,07,29,05,03,17.90
2009,07,29,05,04,17.90
2009,07,29,05,05,17.90
2009,07,29,05,06,17.90
2009,07,29,05,07,17.90
2009,07,29,05,08,17.90
2009,07,29,05,09,17.90
2009,07,29,05,10,17.80
2009,07,29,05,11,17.80
2009,07,29,05,12,17.80
2009,07,29,05,13,17.80
2009,07,29,05,14,17.80
2009,07,29,05,15,17.80
2009,07,29,05,16,17.80
2009,07,29,05,17,17.80
2009,07,29,05,18,17.80
2009,07,29,05,19,17.80
2009,07,29,05,20,17.80
2009,07,29,05,21,17.80
2009,07,29,05,22,17.80
2009,07,29,05,23,17.70
2009,07,29,05,24,17.70
2009,07,29,05,25,17.70
2009,07,29,05,26,17.60
2009,07,29,05,27,17.50
2009,07,29,05,28,17.40
2009,07,29,05,29,17.30
2009,07,29,05,30,17.30
2009,07,29,05,31,17.20
2009,07,29,05,32,17.20
2009,07,29,05,33,17.10
2009,07,29,05,34,17.00
2009,07,29,05,35,17.00
2009,07,29,05,36,16.90
2009,07,29,05,37,16.90
2009,07,29,05,38,16.90
2009,07,29,05,39,16.80
2009,07,29,05,40,16.70
2009,07,29,05,41,16.70
2009,07,29,05,42,16.70
2009,07,29,05,43,16.60
2009,07,29,05,44,16.50
2009,07,29,05,45,16.40
2009,07,29,05,46,16.40
2009,07,29,05,47,16.40
2009,07,29,05,48,16.50
2009,07,29,05,49,16.60
2009,07,29,05,50,16.70
2009,07,29,05,51,16.70
2009,07,29,05,52,16.70
2009,07,29,05,53,16.80
2009,07,29,05,54,16.80
2009,07,29,05,55,16.80
2009,07,29,05,56,16.80
2009,07,29,05,57,16.80
2009,07,29,05,58,16.80
2009,07,29,05,59,16.80
2009,07,29,06,00,16.80
2009,07,29,06,01,16.80
2009,07,29,06,02,16.80
2009,07,29,06,03,16.80
2009,07,29,06,04,16.80
2009,07,29,06,05,16.90
2009,07,29,06,06,16.90
2009,07,29,06,07,17.00
2009,07,29,06,08,16.90
2009,07,29,06,09,16.90
2009,07,29,06,10,16.90
2009,07,29,06,11,16.90
2009,07,29,06,12,16.80
2009,07,29,06,13,16.80
2009,07,29,06,14,16.70
2009,07,29,06,15,16.70
2009,07,29,06,16,16.70
2009,07,29,06,17,16.70
2009,07,29,06,18,16.70
2009,07,29,06,19,16.60
2009,07,29,06,20,16.60
2009,07,29,06,21,16.50
2009,07,29,06,22,16.40
2009,07,29,06,23,16.40
2009,07,29,06,24,16.40
2009,07,29,06,25,16.30
2009,07,29,06,26,16.20
2009,07,29,06,27,16.10
2009,07,29,06,28,16.10
2009,07,29,06,29,16.10
2009,07,29,06,30,16.00
2009,07,29,06,31,15.90
2009,07,29,06,32,15.90
2009,07,29,06,33,15.80
2009,07,29,06,34,15.80
2009,07,29,06,35,15.80
2009,07,29,06,36,15.80
2009,07,29,06,37,15.80
2009,07,29,06,38,15.70
2009,07,29,06,39,15.70
2009,07,29,06,40,15.70
2009,07,29,06,41,15.70
2009,07,29,06,42,15.70
2009,07,29,06,43,15.70
2009,07,29,06,44,15.70
2009,07,29,06,45,15.60
2009,07,29,06,46,15.60
2009,07,29,06,47,15.60
2009,07,29,06,48,15.60
2009,07,29,06,49,15.50
2009,07,29,06,50,15.50
2009,07,29,06,51,15.40
2009,07,29,06,52,15.40
2009,07,29,06,53,15.40
2009,07,29,06,54,15.50
2009,07,29,06,55,15.50
2009,07,29,06,56,15.50
2009,07,29,06,57,15.60
2009,07,29,06,58,15.60
2009,07,29,06,59,15.70
2009,07,29,07,00,15.70
2009,07,29,07,01,15.80
2009,07,29,07,02,15.80
2009,07,29,07,03,15.90
2009,07,29,07,04,15.90
2009,07,29,07,05,16.10
2009,07,29,07,06,16.10
2009,07,29,07,07,16.10
2009,07,29,07,08,16.10
2009,07,29,07,09,16.10
2009,07,29,07,10,16.10
2009,07,29,07,11,16.20
2009,07,29,07,12,16.30
2009,07,29,07,13,16.30
2009,07,29,07,14,16.40
2009,07,29,07,15,16.50
2009,07,29,07,16,16.60
2009,07,29,07,17,16.60
2009,07,29,07,18,16.70
2009,07,29,07,19,16.70
2009,07,29,07,20,16.80
2009,07,29,07,21,16.80
2009,07,29,07,22,16.90
2009,07,29,07,23,16.90
2009,07,29,07,24,16.90
2009,07,29,07,25,16.90
2009,07,29,07,26,17.00
2009,07,29,07,27,17.00
2009,07,29,07,28,17.00
2009,07,29,07,29,17.00
2009,07,29,07,30,17.00
2009,07,29,07,31,17.00
2009,07,29,07,32,17.00
2009,07,29,07,33,17.00
2009,07,29,07,34,17.00
2009,07,29,07,35,17.10
2009,07,29,07,36,17.20
2009,07,29,07,37,17.20
2009,07,29,07,38,17.30
2009,07,29,07,39,17.30
2009,07,29,07,40,17.30
2009,07,29,07,41,17.30
2009,07,29,07,42,17.30
2009,07,29,07,43,17.40
2009,07,29,07,44,17.40
2009,07,29,07,45,17.50
2009,07,29,07,46,17.50
2009,07,29,07,47,17.60
2009,07,29,07,48,17.70
2009,07,29,07,49,17.70
2009,07,29,07,50,17.80
2009,07,29,07,51,17.90
2009,07,29,07,52,17.90
2009,07,29,07,53,17.90
2009,07,29,07,54,17.90
2009,07,29,07,55,17.90
2009,07,29,07,56,17.90
2009,07,29,07,57,17.90
2009,07,29,07,58,17.90
2009,07,29,07,59,17.90
2009,07,29,08,00,18.00
2009,07,29,08,01,18.10
2009,07,29,08,02,18.10
2009,07,29,08,03,18.10
2009,07,29,08,04,18.10
2009,07,29,08,05,18.20
2009,07,29,08,06,18.30
2009,07,29,08,07,18.40
2009,07,29,08,08,18.50
2009,07,29,08,09,18.60
2009,07,29,08,10,18.70
2009,07,29,08,11,18.90
2009,07,29,08,12,18.90
2009,07,29,08,13,19.00
2009,07,29,08,14,19.10
2009,07,29,08,15,19.10
2009,07,29,08,16,19.20
2009,07,29,08,17,19.30
2009,07,29,08,18,19.30
2009,07,29,08,19,19.30
2009,07,29,08,20,19.40
2009,07,29,08,21,19.40
2009,07,29,08,22,19.50
2009,07,29,08,23,19.60
2009,07,29,08,24,19.60
2009,07,29,08,25,19.70
2009,07,29,08,26,19.70
2009,07,29,08,27,19.80
2009,07,29,08,28,19.80
2009,07,29,08,29,19.90
2009,07,29,08,30,20.00
2009,07,29,08,31,20.10
2009,07,29,08,32,20.10
2009,07,29,08,33,20.20
2009,07,29,08,34,20.30
2009,07,29,08,35,20.40
2009,07,29,08,36,20.50
2009,07,29,08,37,20.70
2009,07,29,08,38,20.80
2009,07,29,08,39,21.00
2009,07,29,08,40,21.10
2009,07,29,08,41,21.30
2009,07,29,08,42,21.40
2009,07,29,08,43,21.50
2009,07,29,08,44,21.60
2009,07,29,08,45,21.60
2009,07,29,08,46,21.70
2009,07,29,08,47,21.70
2009,07,29,08,48,21.80
2009,07,29,08,49,21.80
2009,07,29,08,50,21.80
2009,07,29,08,51,21.90
2009,07,29,08,52,22.00
2009,07,29,08,53,22.10
2009,07,29,08,54,22.20
2009,07,29,08,55,22.20
2009,07,29,08,56,22.30
2009,07,29,08,57,22.30
2009,07,29,08,58,22.50
2009,07,29,08,59,22.50
2009,07,29,09,00,22.60
2009,07,29,09,01,22.60
2009,07,29,09,02,22.60
2009,07,29,09,03,22.70
2009,07,29,09,04,22.70
2009,07,29,09,05,22.80
2009,07,29,09,06,22.90
2009,07,29,09,07,22.90
2009,07,29,09,08,22.90
2009,07,29,09,09,22.90
2009,07,29,09,10,22.80
2009,07,29,09,11,22.80
2009,07,29,09,12,22.80
2009,07,29,09,13,22.70
2009,07,29,09,14,22.60
2009,07,29,09,15,22.40
2009,07,29,09,16,22.30
2009,07,29,09,17,22.30
2009,07,29,09,18,22.30
2009,07,29,09,19,22.30
2009,07,29,09,20,22.20
2009,07,29,09,21,22.10
2009,07,29,09,22,22.10
2009,07,29,09,23,22.10
2009,07,29,09,24,22.00
2009,07,29,09,25,22.00
2009,07,29,09,26,22.00
2009,07,29,09,27,22.00
2009,07,29,09,28,22.10
2009,07,29,09,29,22.10
2009,07,29,09,30,22.20
2009,07,29,09,31,22.30
2009,07,29,09,32,22.40
2009,07,29,09,33,22.50
2009,07,29,09,34,22.60
2009,07,29,09,35,22.70
2009,07,29,09,36,22.80
2009,07,29,09,37,22.80
2009,07,29,09,38,22.90
2009,07,29,09,39,22.90
2009,07,29,09,40,22.90
2009,07,29,09,41,23.00
2009,07,29,09,42,23.10
2009,07,29,09,43,23.20
2009,07,29,09,44,23.30
2009,07,29,09,45,23.30
2009,07,29,09,46,23.40
2009,07,29,09,47,23.60
2009,07,29,09,48,23.70
2009,07,29,09,49,23.80
2009,07,29,09,50,23.80
2009,07,29,09,51,23.90
2009,07,29,09,52,23.90
2009,07,29,09,53,24.00
2009,07,29,09,54,24.10
2009,07,29,09,55,24.10
2009,07,29,09,56,24.20
2009,07,29,09,57,24.20
2009,07,29,09,58,24.30
2009,07,29,09,59,24.40
2009,07,29,10,00,24.50
2009,07,29,10,01,24.50
2009,07,29,10,02,24.60
2009,07,29,10,03,24.60
2009,07,29,10,04,24.60
2009,07,29,10,05,24.50
2009,07,29,10,06,24.50
2009,07,29,10,07,24.50
2009,07,29,10,08,24.40
2009,07,29,10,09,24.30
2009,07,29,10,10,24.20
2009,07,29,10,11,24.20
2009,07,29,10,12,24.10
2009,07,29,10,13,24.00
2009,07,29,10,14,23.80
2009,07,29,10,15,23.50
2009,07,29,10,16,23.20
2009,07,29,10,17,23.00
2009,07,29,10,18,22.90
2009,07,29,10,19,22.70
2009,07,29,10,20,22.50
2009,07,29,10,21,22.40
2009,07,29,10,22,22.20
2009,07,29,10,23,22.10
2009,07,29,10,24,21.90
2009,07,29,10,25,21.80
2009,07,29,10,26,21.60
2009,07,29,10,27,21.30
2009,07,29,10,28,21.20
2009,07,29,10,29,21.10
2009,07,29,10,30,21.00
2009,07,29,10,31,20.90
2009,07,29,10,32,20.70
2009,07,29,10,33,20.50
2009,07,29,10,34,20.40
2009,07,29,10,35,20.30
2009,07,29,10,36,20.20
2009,07,29,10,37,20.20
2009,07,29,10,38,20.20
2009,07,29,10,39,20.20
2009,07,29,10,40,20.20
2009,07,29,10,41,20.10
2009,07,29,10,42,20.10
2009,07,29,10,43,20.00
2009,07,29,10,44,20.10
2009,07,29,10,45,20.20
2009,07,29,10,46,20.30
2009,07,29,10,47,20.40
2009,07,29,10,48,20.60
2009,07,29,10,49,20.70
2009,07,29,10,50,20.80
2009,07,29,10,51,21.00
2009,07,29,10,52,21.00
2009,07,29,10,53,20.90
2009,07,29,10,54,20.80
2009,07,29,10,55,20.70
2009,07,29,10,56,20.70
2009,07,29,10,57,20.70
2009,07,29,10,58,20.80
2009,07,29,10,59,20.90
2009,07,29,11,00,21.00
2009,07,29,11,01,21.10
2009,07,29,11,02,21.20
2009,07,29,11,03,21.20
2009,07,29,11,04,21.10
2009,07,29,11,05,21.00
2009,07,29,11,06,20.80
2009,07,29,11,07,20.70
2009,07,29,11,08,20.60
2009,07,29,11,09,20.60
2009,07,29,11,10,20.70
2009,07,29,11,11,20.70
2009,07,29,11,12,20.70
2009,07,29,11,13,20.70
2009,07,29,11,14,20.70
2009,07,29,11,15,20.60
2009,07,29,11,16,20.60
2009,07,29,11,17,20.60
2009,07,29,11,18,20.80
2009,07,29,11,19,21.00
2009,07,29,11,20,21.10
2009,07,29,11,21,21.30
2009,07,29,11,22,21.30
2009,07,29,11,23,21.30
2009,07,29,11,24,21.30
2009,07,29,11,25,21.20
2009,07,29,11,26,21.10
2009,07,29,11,27,21.20
2009,07,29,11,28,21.20
2009,07,29,11,29,21.30
2009,07,29,11,30,21.30
2009,07,29,11,31,21.30
2009,07,29,11,32,21.40
2009,07,29,11,33,21.40
2009,07,29,11,34,21.40
2009,07,29,11,35,21.30
2009,07,29,11,36,21.20
2009,07,29,11,37,21.10
2009,07,29,11,38,21.00
2009,07,29,11,39,20.90
2009,07,29,11,40,20.80
2009,07,29,11,41,20.70
2009,07,29,11,42,20.70
2009,07,29,11,43,20.60
2009,07,29,11,44,20.50
2009,07,29,11,45,20.50
2009,07,29,11,46,20.50
2009,07,29,11,47,20.50
2009,07,29,11,48,20.30
2009,07,29,11,49,20.30
2009,07,29,11,50,20.40
2009,07,29,11,51,20.40
2009,07,29,11,52,20.30
2009,07,29,11,53,20.30
2009,07,29,11,54,20.40
2009,07,29,11,55,20.40
2009,07,29,11,56,20.50
2009,07,29,11,57,20.50
2009,07,29,11,58,20.50
2009,07,29,11,59,20.60
2009,07,29,12,00,20.70
2009,07,29,12,01,20.70
2009,07,29,12,02,20.80
2009,07,29,12,03,20.90
2009,07,29,12,04,21.00
2009,07,29,12,05,21.10
2009,07,29,12,06,21.00
2009,07,29,12,07,21.00
2009,07,29,12,08,21.00
2009,07,29,12,09,21.10
2009,07,29,12,10,21.20
2009,07,29,12,11,21.30
2009,07,29,12,12,21.30
2009,07,29,12,13,21.50
2009,07,29,12,14,21.60
2009,07,29,12,15,21.80
2009,07,29,12,16,21.90
2009,07,29,12,17,22.00
2009,07,29,12,18,22.20
2009,07,29,12,19,22.20
2009,07,29,12,20,22.10
2009,07,29,12,21,22.00
2009,07,29,12,22,21.90
2009,07,29,12,23,21.90
2009,07,29,12,24,21.90
2009,07,29,12,25,21.80
2009,07,29,12,26,21.80
2009,07,29,12,27,21.80
2009,07,29,12,28,21.80
2009,07,29,12,29,21.90
2009,07,29,12,30,21.90
2009,07,29,12,31,22.10
2009,07,29,12,32,22.30
2009,07,29,12,33,22.50
2009,07,29,12,34,22.60
2009,07,29,12,35,22.70
2009,07,29,12,36,22.80
2009,07,29,12,37,22.70
2009,07,29,12,38,22.70
2009,07,29,12,39,22.70
2009,07,29,12,40,22.60
2009,07,29,12,41,22.50
2009,07,29,12,42,22.40
2009,07,29,12,43,22.40
2009,07,29,12,44,22.30
2009,07,29,12,45,22.30
2009,07,29,12,46,22.20
2009,07,29,12,47,22.10
2009,07,29,12,48,22.10
2009,07,29,12,49,22.10
2009,07,29,12,50,22.30
2009,07,29,12,51,22.40
2009,07,29,12,52,22.60
2009,07,29,12,53,22.70
2009,07,29,12,54,22.80
2009,07,29,12,55,22.90
2009,07,29,12,56,22.90
2009,07,29,12,57,22.90
2009,07,29,12,58,23.00
2009,07,29,12,59,23.10
2009,07,29,13,00,23.20
2009,07,29,13,01,23.30
2009,07,29,13,02,23.30
2009,07,29,13,03,23.20
2009,07,29,13,04,23.20
2009,07,29,13,05,23.10
2009,07,29,13,06,23.10
2009,07,29,13,07,23.10
2009,07,29,13,08,23.00
2009,07,29,13,09,22.90
2009,07,29,13,10,22.90
2009,07,29,13,11,22.90
2009,07,29,13,12,22.90
2009,07,29,13,13,23.10
2009,07,29,13,14,23.10
2009,07,29,13,15,23.10
2009,07,29,13,16,23.10
2009,07,29,13,17,23.10
2009,07,29,13,18,23.10
2009,07,29,13,19,23.30
2009,07,29,13,20,23.30
2009,07,29,13,21,23.40
2009,07,29,13,22,23.60
2009,07,29,13,23,23.70
2009,07,29,13,24,23.80
2009,07,29,13,25,23.80
2009,07,29,13,26,23.90
2009,07,29,13,27,23.90
2009,07,29,13,28,23.90
2009,07,29,13,29,23.90
2009,07,29,13,30,23.90
2009,07,29,13,31,24.00
2009,07,29,13,32,24.10
2009,07,29,13,33,24.20
2009,07,29,13,34,24.30
2009,07,29,13,35,24.40
2009,07,29,13,36,24.50
2009,07,29,13,37,24.60
2009,07,29,13,38,24.70
2009,07,29,13,39,24.70
2009,07,29,13,40,24.90
2009,07,29,13,41,25.00
2009,07,29,13,42,25.00
2009,07,29,13,43,25.10
2009,07,29,13,44,25.20
2009,07,29,13,45,25.30
2009,07,29,13,46,25.40
2009,07,29,13,47,25.50
2009,07,29,13,48,25.50
2009,07,29,13,49,25.70
2009,07,29,13,50,25.80
2009,07,29,13,51,25.90
2009,07,29,13,52,25.90
2009,07,29,13,53,25.90
2009,07,29,13,54,25.70
2009,07,29,13,55,25.60
2009,07,29,13,56,25.50
2009,07,29,13,57,25.40
2009,07,29,13,58,25.40
2009,07,29,13,59,25.40
2009,07,29,14,00,25.30
2009,07,29,14,01,25.30
2009,07,29,14,02,25.20
2009,07,29,14,03,25.10
2009,07,29,14,04,25.00
2009,07,29,14,05,24.90
2009,07,29,14,06,24.80
2009,07,29,14,07,24.70
2009,07,29,14,08,24.50
2009,07,29,14,09,24.40
2009,07,29,14,10,24.30
2009,07,29,14,11,24.10
2009,07,29,14,12,24.00
2009,07,29,14,13,23.90
2009,07,29,14,14,23.90
2009,07,29,14,15,23.90
2009,07,29,14,16,23.90
2009,07,29,14,17,23.90
2009,07,29,14,18,23.90
2009,07,29,14,19,24.00
2009,07,29,14,20,24.10
2009,07,29,14,21,24.10
2009,07,29,14,22,24.10
2009,07,29,14,23,24.10
2009,07,29,14,24,24.10
2009,07,29,14,25,24.20
2009,07,29,14,26,24.20
2009,07,29,14,27,24.30
2009,07,29,14,28,24.40
2009,07,29,14,29,24.50
2009,07,29,14,30,24.70
2009,07,29,14,31,24.70
2009,07,29,14,32,24.70
2009,07,29,14,33,24.70
2009,07,29,14,34,24.70
2009,07,29,14,35,24.60
2009,07,29,14,36,24.50
2009,07,29,14,37,24.50
2009,07,29,14,38,24.50
2009,07,29,14,39,24.60
2009,07,29,14,40,24.70
2009,07,29,14,41,24.70
2009,07,29,14,42,24.70
2009,07,29,14,43,24.70
2009,07,29,14,44,24.80
2009,07,29,14,45,24.80
2009,07,29,14,46,24.70
2009,07,29,14,47,24.70
2009,07,29,14,48,24.70
2009,07,29,14,49,24.60
2009,07,29,14,50,24.60
2009,07,29,14,51,24.60
2009,07,29,14,52,24.60
2009,07,29,14,53,24.70
2009,07,29,14,54,24.80
2009,07,29,14,55,24.80
2009,07,29,14,56,24.80
2009,07,29,14,57,24.90
2009,07,29,14,58,24.90
2009,07,29,14,59,24.90
2009,07,29,15,00,25.00
2009,07,29,15,01,25.00
2009,07,29,15,02,24.90
2009,07,29,15,03,25.00
2009,07,29,15,04,25.20
2009,07,29,15,05,25.30
2009,07,29,15,06,25.40
2009,07,29,15,07,25.50
2009,07,29,15,08,25.60
2009,07,29,15,09,25.80
2009,07,29,15,10,25.80
2009,07,29,15,11,25.90
2009,07,29,15,12,25.90
2009,07,29,15,13,26.00
2009,07,29,15,14,26.10
2009,07,29,15,15,26.20
2009,07,29,15,16,26.20
2009,07,29,15,17,26.20
2009,07,29,15,18,26.30
2009,07,29,15,19,26.40
2009,07,29,15,20,26.50
2009,07,29,15,21,26.60
2009,07,29,15,22,26.60
2009,07,29,15,23,26.50
2009,07,29,15,24,26.40
2009,07,29,15,25,26.40
2009,07,29,15,26,26.40
2009,07,29,15,27,26.30
2009,07,29,15,28,26.30
2009,07,29,15,29,26.30
2009,07,29,15,30,26.20
2009,07,29,15,31,26.10
2009,07,29,15,32,26.10
2009,07,29,15,33,26.10
2009,07,29,15,34,26.00
2009,07,29,15,35,26.00
2009,07,29,15,36,25.80
2009,07,29,15,37,25.60
2009,07,29,15,38,25.50
2009,07,29,15,39,25.40
2009,07,29,15,40,25.30
2009,07,29,15,41,25.20
2009,07,29,15,42,25.10
2009,07,29,15,43,25.10
2009,07,29,15,44,25.10
2009,07,29,15,45,25.10
2009,07,29,15,46,25.20
2009,07,29,15,47,25.10
2009,07,29,15,48,25.20
2009,07,29,15,49,25.20
2009,07,29,15,50,25.20
2009,07,29,15,51,25.30
2009,07,29,15,52,25.30
2009,07,29,15,53,25.40
2009,07,29,15,54,25.40
2009,07,29,15,55,25.40
2009,07,29,15,56,25.50
2009,07,29,15,57,25.60
2009,07,29,15,58,25.60
2009,07,29,15,59,25.60
2009,07,29,16,00,25.70
2009,07,29,16,01,25.70
2009,07,29,16,02,25.80
2009,07,29,16,03,25.80
2009,07,29,16,04,25.80
2009,07,29,16,05,25.80
2009,07,29,16,06,25.90
2009,07,29,16,07,25.90
2009,07,29,16,08,26.00
2009,07,29,16,09,26.10
2009,07,29,16,10,26.10
2009,07,29,16,11,26.20
2009,07,29,16,12,26.20
2009,07,29,16,13,26.30
2009,07,29,16,14,26.40
2009,07,29,16,15,26.40
2009,07,29,16,16,26.40
2009,07,29,16,17,26.40
2009,07,29,16,18,26.40
2009,07,29,16,19,26.40
2009,07,29,16,20,26.40
2009,07,29,16,21,26.30
2009,07,29,16,22,26.30
2009,07,29,16,23,26.30
2009,07,29,16,24,26.30
2009,07,29,16,25,26.30
2009,07,29,16,26,26.40
2009,07,29,16,27,26.60
2009,07,29,16,28,26.60
2009,07,29,16,29,26.60
2009,07,29,16,30,26.60
2009,07,29,16,31,26.60
2009,07,29,16,32,26.60
2009,07,29,16,33,26.60
2009,07,29,16,34,26.60
2009,07,29,16,35,26.60
2009,07,29,16,36,26.60
2009,07,29,16,37,26.50
2009,07,29,16,38,26.40
2009,07,29,16,39,26.40
2009,07,29,16,40,26.40
2009,07,29,16,41,26.60
2009,07,29,16,42,26.60
2009,07,29,16,43,26.50
2009,07,29,16,44,26.60
2009,07,29,16,45,26.60
2009,07,29,16,46,26.60
2009,07,29,16,47,26.70
2009,07,29,16,48,26.70
2009,07,29,16,49,26.80
2009,07,29,16,50,26.80
2009,07,29,16,51,26.70
2009,07,29,16,52,26.70
2009,07,29,16,53,26.60
2009,07,29,16,54,26.60
2009,07,29,16,55,26.50
2009,07,29,16,56,26.40
2009,07,29,16,57,26.30
2009,07,29,16,58,26.30
2009,07,29,16,59,26.30
2009,07,29,17,00,26.30
2009,07,29,17,01,26.20
2009,07,29,17,02,26.00
2009,07,29,17,03,25.90
2009,07,29,17,04,25.80
2009,07,29,17,05,25.80
2009,07,29,17,06,25.80
2009,07,29,17,07,25.70
2009,07,29,17,08,25.60
2009,07,29,17,09,25.60
2009,07,29,17,10,25.60
2009,07,29,17,11,25.50
2009,07,29,17,12,25.50
2009,07,29,17,13,25.40
2009,07,29,17,14,25.50
2009,07,29,17,15,25.50
2009,07,29,17,16,25.60
2009,07,29,17,17,25.70
2009,07,29,17,18,25.70
2009,07,29,17,19,25.90